Location: Krasnoyarskiy Pitomnik
(51.1333°N, 71.6167°E)
Time: 08:07:46
(UTC+00:00)

Cosmos 2278 Rocket - Pass Details

Date: 22 October 2021
Orbit: 841 x 845 km, 71.0° (Epoch: 05 December)

Event Time Altitude Azimuth Distance (km) Brightness Sun altitude
Rises 13:05:10 0° 327° (NNW) 3,417 5.8 -9.9°
Reaches altitude 10° 13:08:59 10° 353° (N) 2,479 4.7 -10.5°
Maximum altitude 13:11:52 14° 23° (NNE) 2,207 4.1 -10.9°
Drops below altitude 10° 13:14:45 10° 54° (NE) 2,475 4.1 -11.4°
Enters shadow 13:14:47 10° 54° (NE) 2,482 4.1 -11.4°
